Time,TemperatureF,DewpointF,PressureIn,WindDirection,WindDirectionDegrees,WindSpeedMPH,WindSpeedGustMPH,Humidity,HourlyPrecipIn,Conditions,Clouds,dailyrainin,SoftwareType,DateUTC
2013-07-05 00:02:00,60.4,23.5,29.72,SSW,213,0.0,0.0,24,0.00,,,0.00,VWS V14.01,2013-07-05 07:02:00,
2013-07-05 00:07:00,60.3,23.4,29.72,South,169,3.6,3.6,24,0.00,,,0.00,VWS V14.01,2013-07-05 07:07:00,
2013-07-05 00:12:00,60.1,23.2,29.72,SSW,209,2.7,3.6,24,0.00,,,0.00,VWS V14.01,2013-07-05 07:12:00,
2013-07-05 00:17:00,59.9,24.0,29.72,SSW,203,3.1,3.1,25,0.00,,,0.00,VWS V14.01,2013-07-05 07:17:00,
2013-07-05 00:22:00,59.7,23.9,29.72,WSW,243,2.7,4.9,25,0.00,,,0.00,VWS V14.01,2013-07-05 07:22:00,
2013-07-05 00:27:00,59.4,24.5,29.72,SW,219,3.6,3.6,26,0.00,,,0.00,VWS V14.01,2013-07-05 07:27:00,
2013-07-05 00:32:00,59.4,24.5,29.72,SSW,206,0.0,3.6,26,0.00,,,0.00,VWS V14.01,2013-07-05 07:32:00,
2013-07-05 00:37:00,59.2,25.2,29.72,ESE,103,2.2,2.2,27,0.00,,,0.00,VWS V14.01,2013-07-05 07:37:00,
2013-07-05 00:42:00,59.2,25.2,29.72,ESE,110,0.0,3.1,27,0.00,,,0.00,VWS V14.01,2013-07-05 07:42:00,
2013-07-05 00:47:00,59.2,26.1,29.72,SE,128,0.0,2.7,28,0.00,,,0.00,VWS V14.01,2013-07-05 07:47:00,
2013-07-05 00:52:00,59.2,26.1,29.72,South,180,0.0,2.2,28,0.00,,,0.00,VWS V14.01,2013-07-05 07:52:00,
2013-07-05 00:57:00,59.2,27.0,29.72,South,187,3.6,3.6,29,0.00,,,0.00,VWS V14.01,2013-07-05 07:57:00,
2013-07-05 01:02:00,59.0,27.6,29.72,ESE,103,2.7,3.6,30,0.00,,,0.00,VWS V14.01,2013-07-05 08:02:00,
2013-07-05 01:07:00,58.8,28.3,29.72,South,182,3.1,3.1,31,0.00,,,0.00,VWS V14.01,2013-07-05 08:07:00,
2013-07-05 01:12:00,58.8,28.3,29.72,SSW,199,2.7,3.6,31,0.00,,,0.00,VWS V14.01,2013-07-05 08:12:00,
2013-07-05 01:17:00,58.6,27.3,29.72,SSW,198,3.6,4.9,30,0.00,,,0.00,VWS V14.01,2013-07-05 08:17:00,
2013-07-05 01:22:00,58.5,27.2,29.72,South,170,3.6,3.6,30,0.00,,,0.00,VWS V14.01,2013-07-05 08:22:00,
2013-07-05 01:27:00,58.5,27.2,29.72,SSW,206,2.7,3.1,30,0.00,,,0.00,VWS V14.01,2013-07-05 08:27:00,
2013-07-05 01:32:00,58.3,27.8,29.72,WSW,241,2.7,5.4,31,0.00,,,0.00,VWS V14.01,2013-07-05 08:32:00,
2013-07-05 01:37:00,58.1,27.6,29.72,SSE,157,5.8,5.8,31,0.00,,,0.00,VWS V14.01,2013-07-05 08:37:00,
2013-07-05 01:42:00,57.9,28.3,29.72,SSW,205,2.7,3.1,32,0.00,,,0.00,VWS V14.01,2013-07-05 08:42:00,
2013-07-05 01:47:00,57.9,29.7,29.72,SSE,156,5.4,5.4,34,0.00,,,0.00,VWS V14.01,2013-07-05 08:47:00,
2013-07-05 01:52:00,57.7,29.6,29.72,SE,144,3.1,6.3,34,0.00,,,0.00,VWS V14.01,2013-07-05 08:52:00,
2013-07-05 01:57:00,57.6,30.1,29.72,SSW,211,3.6,3.6,35,0.00,,,0.00,VWS V14.01,2013-07-05 08:57:00,
2013-07-05 02:02:00,57.4,30.0,29.72,SSE,159,5.8,5.8,35,0.00,,,0.00,VWS V14.01,2013-07-05 09:02:00,
2013-07-05 02:07:00,57.2,29.8,29.72,SSE,163,6.3,6.3,35,0.00,,,0.00,VWS V14.01,2013-07-05 09:07:00,
2013-07-05 02:12:00,56.8,30.2,29.72,South,176,5.4,5.4,36,0.00,,,0.00,VWS V14.01,2013-07-05 09:12:00,
2013-07-05 02:17:00,56.8,30.2,29.72,ESE,108,8.1,8.1,36,0.00,,,0.00,VWS V14.01,2013-07-05 09:17:00,
2013-07-05 02:22:00,56.7,30.7,29.72,WSW,243,3.6,4.0,37,0.00,,,0.00,VWS V14.01,2013-07-05 09:22:00,
2013-07-05 02:27:00,56.7,30.7,29.72,South,178,3.1,4.0,37,0.00,,,0.00,VWS V14.01,2013-07-05 09:27:00,
2013-07-05 02:33:00,56.7,30.7,29.72,ESE,121,3.6,3.6,37,0.00,,,0.00,VWS V14.01,2013-07-05 09:33:00,
2013-07-05 02:38:00,56.7,30.7,29.72,SSW,194,7.2,7.2,37,0.00,,,0.00,VWS V14.01,2013-07-05 09:38:00,
2013-07-05 02:43:00,56.7,30.7,29.72,SSE,147,3.1,3.6,37,0.00,,,0.00,VWS V14.01,2013-07-05 09:43:00,
2013-07-05 02:48:00,56.5,30.5,29.72,SSE,166,3.6,3.6,37,0.00,,,0.00,VWS V14.01,2013-07-05 09:48:00,
2013-07-05 02:53:00,56.3,30.4,29.72,SSE,147,2.7,3.1,37,0.00,,,0.00,VWS V14.01,2013-07-05 09:53:00,
2013-07-05 02:58:00,56.3,30.4,29.72,SSW,196,3.6,5.8,37,0.00,,,0.00,VWS V14.01,2013-07-05 09:58:00,
2013-07-05 03:03:00,56.1,30.2,29.72,SE,128,2.2,3.1,37,0.00,,,0.00,VWS V14.01,2013-07-05 10:03:00,
2013-07-05 03:08:00,56.1,30.2,29.72,SSW,212,3.6,5.4,37,0.00,,,0.00,VWS V14.01,2013-07-05 10:08:00,
2013-07-05 03:14:00,56.1,30.9,29.72,SSW,192,0.0,3.6,38,0.00,,,0.00,VWS V14.01,2013-07-05 10:14:00,
2013-07-05 03:19:00,55.9,30.7,29.72,SW,222,3.6,3.6,38,0.00,,,0.00,VWS V14.01,2013-07-05 10:19:00,
2013-07-05 03:24:00,55.9,30.7,29.72,SSE,166,2.2,3.6,38,0.00,,,0.00,VWS V14.01,2013-07-05 10:24:00,
2013-07-05 03:29:00,55.8,30.6,29.72,SE,138,4.9,4.9,38,0.00,,,0.00,VWS V14.01,2013-07-05 10:29:00,
2013-07-05 03:34:00,55.8,30.6,29.69,SSE,153,0.0,0.0,38,0.00,,,0.00,VWS V14.01,2013-07-05 10:34:00,
2013-07-05 03:39:00,55.8,30.6,29.69,South,187,3.1,4.5,38,0.00,,,0.00,VWS V14.01,2013-07-05 10:39:00,
2013-07-05 03:44:00,55.6,30.4,29.69,SSE,155,5.4,5.4,38,0.00,,,0.00,VWS V14.01,2013-07-05 10:44:00,
2013-07-05 03:49:00,55.6,30.4,29.72,ESE,109,2.2,3.6,38,0.00,,,0.00,VWS V14.01,2013-07-05 10:49:00,
2013-07-05 03:54:00,55.6,31.0,29.72,SSW,209,3.1,5.4,39,0.00,,,0.00,VWS V14.01,2013-07-05 10:54:00,
2013-07-05 03:59:00,55.4,30.9,29.72,SSW,210,2.2,2.2,39,0.00,,,0.00,VWS V14.01,2013-07-05 10:59:00,
2013-07-05 04:04:00,55.2,31.3,29.72,SSE,164,2.2,3.1,40,0.00,,,0.00,VWS V14.01,2013-07-05 11:04:00,
2013-07-05 04:10:00,55.2,32.0,29.72,ENE,78,0.0,0.0,41,0.00,,,0.00,VWS V14.01,2013-07-05 11:10:00,
2013-07-05 04:15:00,55.2,32.0,29.72,SE,144,4.9,4.9,41,0.00,,,0.00,VWS V14.01,2013-07-05 11:15:00,
2013-07-05 04:20:00,55.0,32.4,29.69,SSE,150,4.9,4.9,42,0.00,,,0.00,VWS V14.01,2013-07-05 11:20:00,
2013-07-05 04:25:00,55.0,32.4,29.69,SW,214,3.6,4.0,42,0.00,,,0.00,VWS V14.01,2013-07-05 11:25:00,
2013-07-05 04:30:00,54.9,32.2,29.69,SE,131,4.0,4.9,42,0.00,,,0.00,VWS V14.01,2013-07-05 11:30:00,
2013-07-05 04:35:00,54.9,32.8,29.72,SE,137,0.0,3.1,43,0.00,,,0.00,VWS V14.01,2013-07-05 11:35:00,
2013-07-05 04:40:00,54.9,32.8,29.72,SSE,165,0.0,5.8,43,0.00,,,0.00,VWS V14.01,2013-07-05 11:40:00,
2013-07-05 04:45:00,54.7,33.2,29.72,SSW,205,3.1,3.1,44,0.00,,,0.00,VWS V14.01,2013-07-05 11:45:00,
2013-07-05 04:50:00,54.7,33.2,29.72,South,188,4.0,4.9,44,0.00,,,0.00,VWS V14.01,2013-07-05 11:50:00,
2013-07-05 04:56:00,54.5,33.6,29.72,South,180,7.6,7.6,45,0.00,,,0.00,VWS V14.01,2013-07-05 11:56:00,
2013-07-05 05:01:00,54.5,34.2,29.72,SSE,158,2.7,5.8,46,0.00,,,0.00,VWS V14.01,2013-07-05 12:01:00,
2013-07-05 05:06:00,54.5,34.2,29.69,South,177,2.7,3.6,46,0.00,,,0.00,VWS V14.01,2013-07-05 12:06:00,
2013-07-05 05:11:00,54.3,34.5,29.69,ENE,72,0.0,2.7,47,0.00,,,0.00,VWS V14.01,2013-07-05 12:11:00,
2013-07-05 05:16:00,54.3,34.5,29.69,SSW,203,2.7,4.0,47,0.00,,,0.00,VWS V14.01,2013-07-05 12:16:00,
2013-07-05 05:21:00,54.3,35.1,29.69,South,190,4.9,4.9,48,0.00,,,0.00,VWS V14.01,2013-07-05 12:21:00,
2013-07-05 05:26:00,54.3,35.1,29.69,East,97,2.7,5.4,48,0.00,,,0.00,VWS V14.01,2013-07-05 12:26:00,
2013-07-05 05:31:00,54.3,35.1,29.69,ESE,103,4.0,4.0,48,0.00,,,0.00,VWS V14.01,2013-07-05 12:31:00,
2013-07-05 05:36:00,54.3,35.6,29.72,SSE,163,3.1,5.8,49,0.00,,,0.00,VWS V14.01,2013-07-05 12:36:00,
2013-07-05 05:41:00,54.3,36.1,29.72,East,89,6.3,8.1,50,0.00,,,0.00,VWS V14.01,2013-07-05 12:41:00,
2013-07-05 05:47:00,54.1,35.9,29.72,ESE,119,4.9,6.7,50,0.00,,,0.00,VWS V14.01,2013-07-05 12:47:00,
2013-07-05 05:52:00,54.1,36.4,29.72,South,186,5.4,6.3,51,0.00,,,0.00,VWS V14.01,2013-07-05 12:52:00,
2013-07-05 05:57:00,54.3,37.1,29.72,ESE,116,5.4,5.8,52,0.00,,,0.00,VWS V14.01,2013-07-05 12:57:00,
2013-07-05 06:02:00,54.5,37.2,29.72,SE,141,5.8,6.3,52,0.00,,,0.00,VWS V14.01,2013-07-05 13:02:00,
2013-07-05 06:07:00,54.5,37.7,29.72,SSW,200,3.1,3.6,53,0.00,,,0.00,VWS V14.01,2013-07-05 13:07:00,
2013-07-05 06:12:00,54.5,37.7,29.72,SE,144,2.2,4.0,53,0.00,,,0.00,VWS V14.01,2013-07-05 13:12:00,
2013-07-05 06:17:00,54.5,37.7,29.72,SW,214,6.3,6.3,53,0.00,,,0.00,VWS V14.01,2013-07-05 13:17:00,
2013-07-05 06:22:00,54.7,38.4,29.72,East,87,2.2,5.4,54,0.00,,,0.00,VWS V14.01,2013-07-05 13:22:00,
2013-07-05 06:27:00,54.7,38.4,29.72,SSE,159,4.0,8.7,54,0.00,,,0.00,VWS V14.01,2013-07-05 13:27:00,
2013-07-05 06:32:00,54.5,38.2,29.72,ESE,105,6.3,9.2,54,0.00,,,0.00,VWS V14.01,2013-07-05 13:32:00,
2013-07-05 06:37:00,54.5,38.2,29.75,SE,142,0.0,3.6,54,0.00,,,0.00,VWS V14.01,2013-07-05 13:37:00,
2013-07-05 06:42:00,54.7,38.4,29.75,ESE,106,4.0,5.4,54,0.00,,,0.00,VWS V14.01,2013-07-05 13:42:00,
2013-07-05 06:48:00,54.7,38.4,29.75,ENE,61,2.7,5.4,54,0.00,,,0.00,VWS V14.01,2013-07-05 13:48:00,
2013-07-05 06:53:00,54.7,38.4,29.75,SSE,149,4.9,5.4,54,0.00,,,0.00,VWS V14.01,2013-07-05 13:53:00,
2013-07-05 06:58:00,54.7,37.9,29.75,SSW,206,2.7,5.8,53,0.00,,,0.00,VWS V14.01,2013-07-05 13:58:00,
2013-07-05 07:03:00,54.7,37.9,29.75,East,82,3.6,4.9,53,0.00,,,0.00,VWS V14.01,2013-07-05 14:03:00,
2013-07-05 07:08:00,54.7,37.9,29.75,SW,227,6.3,6.3,53,0.00,,,0.00,VWS V14.01,2013-07-05 14:08:00,
2013-07-05 07:13:00,54.9,38.1,29.75,SSW,192,3.6,5.8,53,0.00,,,0.00,VWS V14.01,2013-07-05 14:13:00,
2013-07-05 07:18:00,54.7,37.9,29.75,South,181,3.6,4.9,53,0.00,,,0.00,VWS V14.01,2013-07-05 14:18:00,
2013-07-05 07:24:00,54.7,37.9,29.75,SSW,203,3.1,6.3,53,0.00,,,0.00,VWS V14.01,2013-07-05 14:24:00,
2013-07-05 07:29:00,54.7,37.9,29.75,East,90,5.4,6.3,53,0.00,,,0.00,VWS V14.01,2013-07-05 14:29:00,
2013-07-05 07:34:00,54.9,38.1,29.78,ESE,114,4.0,5.8,53,0.00,,,0.00,VWS V14.01,2013-07-05 14:34:00,
2013-07-05 07:39:00,54.9,37.6,29.78,South,189,8.3,8.3,52,0.00,,,0.00,VWS V14.01,2013-07-05 14:39:00,
2013-07-05 07:44:00,54.7,37.4,29.78,WSW,248,8.3,8.3,52,0.00,,,0.00,VWS V14.01,2013-07-05 14:44:00,
2013-07-05 07:49:00,54.5,37.2,29.78,SW,235,8.7,8.7,52,0.00,,,0.00,VWS V14.01,2013-07-05 14:49:00,
2013-07-05 07:54:00,54.7,37.4,29.78,SW,235,8.7,8.7,52,0.00,,,0.00,VWS V14.01,2013-07-05 14:54:00,
2013-07-05 07:59:00,54.7,37.4,29.78,South,178,6.3,6.3,52,0.00,,,0.00,VWS V14.01,2013-07-05 14:59:00,
2013-07-05 08:04:00,54.9,38.1,29.78,South,188,3.1,4.0,53,0.00,,,0.00,VWS V14.01,2013-07-05 15:04:00,
2013-07-05 08:10:00,54.9,37.6,29.78,ENE,72,10.1,10.1,52,0.00,,,0.00,VWS V14.01,2013-07-05 15:10:00,
2013-07-05 08:15:00,54.9,37.6,29.78,SE,142,4.5,8.1,52,0.00,,,0.00,VWS V14.01,2013-07-05 15:15:00,
2013-07-05 08:20:00,54.9,37.1,29.78,WSW,238,3.6,3.6,51,0.00,,,0.00,VWS V14.01,2013-07-05 15:20:00,
2013-07-05 08:25:00,54.9,37.1,29.78,SSW,209,4.0,5.8,51,0.00,,,0.00,VWS V14.01,2013-07-05 15:25:00,
2013-07-05 08:30:00,54.9,36.6,29.78,SSE,152,3.6,6.7,50,0.00,,,0.00,VWS V14.01,2013-07-05 15:30:00,
2013-07-05 08:35:00,54.9,36.6,29.78,ESE,105,6.3,7.2,50,0.00,,,0.00,VWS V14.01,2013-07-05 15:35:00,
2013-07-05 08:40:00,54.7,36.4,29.78,SW,225,5.4,5.8,50,0.00,,,0.00,VWS V14.01,2013-07-05 15:40:00,
2013-07-05 08:45:00,54.9,36.6,29.78,SW,218,5.4,5.4,50,0.00,,,0.00,VWS V14.01,2013-07-05 15:45:00,
2013-07-05 08:49:00,54.9,36.6,29.78,NNW,340,2.7,4.0,50,0.00,,,0.00,VWS V14.01,2013-07-05 15:49:00,
2013-07-05 08:54:00,55.0,36.8,29.78,SSW,211,7.2,7.6,50,0.00,,,0.00,VWS V14.01,2013-07-05 15:54:00,
2013-07-05 08:59:00,55.0,36.8,29.78,SW,218,5.4,5.8,50,0.00,,,0.00,VWS V14.01,2013-07-05 15:59:00,
2013-07-05 09:04:00,55.2,36.9,29.78,SSE,158,5.4,7.6,50,0.00,,,0.00,VWS V14.01,2013-07-05 16:04:00,
2013-07-05 09:05:00,55.2,36.9,29.78,SSW,199,4.0,4.0,50,0.00,,,0.00,VWS V14.01,2013-07-05 16:05:00,
2013-07-05 09:10:00,55.6,36.7,29.78,SSE,150,8.1,8.1,49,0.00,,,0.00,VWS V14.01,2013-07-05 16:10:00,
2013-07-05 09:15:00,55.8,36.4,29.78,SSE,164,4.0,4.9,48,0.00,,,0.00,VWS V14.01,2013-07-05 16:15:00,
2013-07-05 09:20:00,55.6,35.7,29.78,SW,235,3.6,6.3,47,0.00,,,0.00,VWS V14.01,2013-07-05 16:20:00,
2013-07-05 09:25:00,55.6,35.7,29.78,SW,221,5.4,6.3,47,0.00,,,0.00,VWS V14.01,2013-07-05 16:25:00,
2013-07-05 09:30:00,55.6,35.7,29.78,SSE,163,4.0,6.7,47,0.00,,,0.00,VWS V14.01,2013-07-05 16:30:00,
2013-07-05 09:35:00,55.4,35.0,29.78,WNW,283,7.6,7.6,46,0.00,,,0.00,VWS V14.01,2013-07-05 16:35:00,
2013-07-05 09:40:00,55.4,35.0,29.78,SSE,148,6.3,8.3,46,0.00,,,0.00,VWS V14.01,2013-07-05 16:40:00,
2013-07-05 09:45:00,55.6,35.2,29.78,ESE,115,6.3,7.6,46,0.00,,,0.00,VWS V14.01,2013-07-05 16:45:00,
2013-07-05 09:50:00,55.8,35.3,29.78,South,181,5.8,6.3,46,0.00,,,0.00,VWS V14.01,2013-07-05 16:50:00,
2013-07-05 09:55:00,55.6,35.2,29.78,SSW,196,6.3,6.3,46,0.00,,,0.00,VWS V14.01,2013-07-05 16:55:00,
2013-07-05 09:56:00,55.6,35.2,29.78,SW,218,7.6,7.6,46,0.00,,,0.00,VWS V14.01,2013-07-05 16:56:00,
2013-07-05 10:01:00,55.8,35.3,29.78,SSW,197,7.2,7.2,46,0.00,,,0.00,VWS V14.01,2013-07-05 17:01:00,
2013-07-05 10:06:00,55.9,34.9,29.78,South,176,4.0,4.0,45,0.00,,,0.00,VWS V14.01,2013-07-05 17:06:00,
2013-07-05 10:11:00,55.9,34.9,29.78,SSW,193,6.3,6.3,45,0.00,,,0.00,VWS V14.01,2013-07-05 17:11:00,
2013-07-05 10:16:00,55.9,34.9,29.78,SW,235,5.8,8.7,45,0.00,,,0.00,VWS V14.01,2013-07-05 17:16:00,
2013-07-05 10:21:00,56.1,34.5,29.78,SSE,166,5.8,5.8,44,0.00,,,0.00,VWS V14.01,2013-07-05 17:21:00,
2013-07-05 10:26:00,56.3,34.1,29.78,South,169,6.3,6.3,43,0.00,,,0.00,VWS V14.01,2013-07-05 17:26:00,
2013-07-05 10:31:00,56.3,33.5,29.78,SW,223,8.1,8.1,42,0.00,,,0.00,VWS V14.01,2013-07-05 17:31:00,
2013-07-05 10:36:00,56.5,34.3,29.78,South,189,4.9,5.8,43,0.00,,,0.00,VWS V14.01,2013-07-05 17:36:00,
2013-07-05 10:41:00,56.8,34.6,29.78,SSW,206,5.4,5.4,43,0.00,,,0.00,VWS V14.01,2013-07-05 17:41:00,
2013-07-05 10:46:00,56.8,33.4,29.78,East,93,7.6,8.7,41,0.00,,,0.00,VWS V14.01,2013-07-05 17:46:00,
2013-07-05 10:51:00,57.0,33.0,29.78,ENE,72,3.6,3.6,40,0.00,,,0.00,VWS V14.01,2013-07-05 17:51:00,
2013-07-05 10:56:00,57.2,31.8,29.78,SSW,203,8.3,8.3,38,0.00,,,0.00,VWS V14.01,2013-07-05 17:56:00,
2013-07-05 11:01:00,57.4,31.3,29.78,WSW,251,5.8,7.6,37,0.00,,,0.00,VWS V14.01,2013-07-05 18:01:00,
2013-07-05 11:06:00,57.6,31.5,29.78,SSW,198,6.3,8.3,37,0.00,,,0.00,VWS V14.01,2013-07-05 18:06:00,
2013-07-05 11:11:00,57.9,31.8,29.78,SW,223,3.1,7.6,37,0.00,,,0.00,VWS V14.01,2013-07-05 18:11:00,
2013-07-05 11:16:00,58.1,31.3,29.78,West,266,8.1,10.1,36,0.00,,,0.00,VWS V14.01,2013-07-05 18:16:00,
2013-07-05 11:21:00,58.3,31.5,29.78,SSW,209,10.1,10.1,36,0.00,,,0.00,VWS V14.01,2013-07-05 18:21:00,
2013-07-05 11:26:00,58.6,31.1,29.78,SW,218,4.9,8.3,35,0.00,,,0.00,VWS V14.01,2013-07-05 18:26:00,
2013-07-05 11:31:00,59.2,30.9,29.78,ESE,105,5.8,8.1,34,0.00,,,0.00,VWS V14.01,2013-07-05 18:31:00,
2013-07-05 11:36:00,59.4,29.5,29.78,SSW,211,4.0,6.3,32,0.00,,,0.00,VWS V14.01,2013-07-05 18:36:00,
2013-07-05 11:41:00,60.1,30.1,29.78,South,183,8.7,8.7,32,0.00,,,0.00,VWS V14.01,2013-07-05 18:41:00,
2013-07-05 11:42:00,60.1,30.1,29.78,South,183,8.7,8.7,32,0.00,,,0.00,VWS V14.01,2013-07-05 18:42:00,
2013-07-05 11:47:00,60.6,28.2,29.78,SW,216,4.0,8.1,29,0.00,,,0.00,VWS V14.01,2013-07-05 18:47:00,
2013-07-05 11:52:00,61.2,26.9,29.78,SE,144,8.7,8.7,27,0.00,,,0.00,VWS V14.01,2013-07-05 18:52:00,
2013-07-05 11:57:00,61.3,27.1,29.78,SSW,210,4.0,4.0,27,0.00,,,0.00,VWS V14.01,2013-07-05 18:57:00,
2013-07-05 12:02:00,61.7,26.5,29.78,South,181,5.4,5.4,26,0.00,,,0.00,VWS V14.01,2013-07-05 19:02:00,
2013-07-05 12:07:00,61.9,25.7,29.78,SW,232,8.3,8.3,25,0.00,,,0.00,VWS V14.01,2013-07-05 19:07:00,
2013-07-05 12:12:00,62.1,26.8,29.78,SSE,168,8.3,8.3,26,0.00,,,0.00,VWS V14.01,2013-07-05 19:12:00,
2013-07-05 12:17:00,62.8,26.5,29.78,SW,224,5.4,7.6,25,0.00,,,0.00,VWS V14.01,2013-07-05 19:17:00,
2013-07-05 12:22:00,62.6,25.3,29.78,SSE,156,5.4,5.4,24,0.00,,,0.00,VWS V14.01,2013-07-05 19:22:00,
2013-07-05 12:27:00,62.6,25.3,29.78,SSE,156,5.4,5.4,24,0.00,,,0.00,VWS V14.01,2013-07-05 19:27:00,
2013-07-05 12:32:00,62.8,25.5,29.78,SSE,156,5.4,5.4,24,0.00,,,0.00,VWS V14.01,2013-07-05 19:32:00,
2013-07-05 12:38:00,63.0,25.6,29.78,SSE,156,5.4,5.4,24,0.00,,,0.00,VWS V14.01,2013-07-05 19:38:00,
2013-07-05 12:43:00,62.8,25.5,29.78,SSE,156,5.4,5.4,24,0.00,,,0.00,VWS V14.01,2013-07-05 19:43:00,
2013-07-05 12:48:00,62.6,25.3,29.78,SSE,156,5.4,5.4,24,0.00,,,0.00,VWS V14.01,2013-07-05 19:48:00,
2013-07-05 12:53:00,62.8,25.5,29.78,SSE,156,5.4,5.4,24,0.00,,,0.00,VWS V14.01,2013-07-05 19:53:00,
2013-07-05 12:58:00,63.3,25.9,29.78,SSE,156,5.4,5.4,24,0.00,,,0.00,VWS V14.01,2013-07-05 19:58:00,
2013-07-05 13:03:00,63.9,25.4,29.78,NNW,328,6.3,6.3,23,0.00,,,0.00,VWS V14.01,2013-07-05 20:03:00,
2013-07-05 13:08:00,64.0,25.5,29.78,NNW,328,6.3,6.3,23,0.00,,,0.00,VWS V14.01,2013-07-05 20:08:00,
2013-07-05 13:13:00,64.2,23.5,29.78,NNW,328,6.3,6.3,21,0.00,,,0.00,VWS V14.01,2013-07-05 20:13:00,
2013-07-05 13:18:00,64.4,22.5,29.78,NNW,328,6.3,6.3,20,0.00,,,0.00,VWS V14.01,2013-07-05 20:18:00,
2013-07-05 13:23:00,64.6,22.6,29.78,NNW,328,6.3,6.3,20,0.00,,,0.00,VWS V14.01,2013-07-05 20:23:00,
2013-07-05 13:28:00,64.8,22.8,29.78,NNW,328,6.3,6.3,20,0.00,,,0.00,VWS V14.01,2013-07-05 20:28:00,
2013-07-05 13:33:00,64.9,22.9,29.78,NNW,328,6.3,6.3,20,0.00,,,0.00,VWS V14.01,2013-07-05 20:33:00,
2013-07-05 13:38:00,64.6,22.6,29.78,NNW,328,6.3,6.3,20,0.00,,,0.00,VWS V14.01,2013-07-05 20:38:00,
2013-07-05 13:43:00,64.6,22.6,29.78,SSW,210,6.3,6.3,20,0.00,,,0.00,VWS V14.01,2013-07-05 20:43:00,
2013-07-05 13:48:00,64.4,22.5,29.78,SSW,210,6.3,6.3,20,0.00,,,0.00,VWS V14.01,2013-07-05 20:48:00,
2013-07-05 13:53:00,64.4,22.5,29.75,SSW,210,6.3,6.3,20,0.00,,,0.00,VWS V14.01,2013-07-05 20:53:00,
2013-07-05 13:58:00,64.8,22.8,29.75,SSW,210,6.3,6.3,20,0.00,,,0.00,VWS V14.01,2013-07-05 20:58:00,
2013-07-05 13:59:00,64.8,22.8,29.75,SSW,210,6.3,6.3,20,0.00,,,0.00,VWS V14.01,2013-07-05 20:59:00,
2013-07-05 14:04:00,64.6,22.6,29.75,SSW,210,6.3,6.3,20,0.00,,,0.00,VWS V14.01,2013-07-05 21:04:00,
2013-07-05 14:09:00,65.1,23.1,29.75,SSW,210,6.3,6.3,20,0.00,,,0.00,VWS V14.01,2013-07-05 21:09:00,
2013-07-05 14:14:00,65.7,21.0,29.75,SSW,210,6.3,6.3,18,0.00,,,0.00,VWS V14.01,2013-07-05 21:14:00,
2013-07-05 14:19:00,65.8,16.9,29.75,SW,234,8.7,8.7,15,0.00,,,0.00,VWS V14.01,2013-07-05 21:19:00,
2013-07-05 14:24:00,65.1,16.4,29.75,SW,223,5.8,5.8,15,0.00,,,0.00,VWS V14.01,2013-07-05 21:24:00,
2013-07-05 14:29:00,65.3,20.7,29.75,SSW,205,5.4,5.4,18,0.00,,,0.00,VWS V14.01,2013-07-05 21:29:00,
2013-07-05 14:34:00,65.3,20.7,29.75,WSW,238,10.5,10.5,18,0.00,,,0.00,VWS V14.01,2013-07-05 21:34:00,
2013-07-05 14:39:00,65.8,16.9,29.75,SW,231,7.6,7.6,15,0.00,,,0.00,VWS V14.01,2013-07-05 21:39:00,
2013-07-05 14:44:00,65.7,16.8,29.75,WSW,243,5.8,5.8,15,0.00,,,0.00,VWS V14.01,2013-07-05 21:44:00,
2013-07-05 14:49:00,65.5,16.6,29.75,WSW,243,5.8,5.8,15,0.00,,,0.00,VWS V14.01,2013-07-05 21:49:00,
2013-07-05 14:54:00,65.7,16.8,29.75,WSW,243,5.8,5.8,15,0.00,,,0.00,VWS V14.01,2013-07-05 21:54:00,
2013-07-05 14:59:00,65.8,16.9,29.75,WSW,243,5.8,5.8,15,0.00,,,0.00,VWS V14.01,2013-07-05 21:59:00,
2013-07-05 15:04:00,65.7,16.8,29.75,SW,217,5.4,5.4,15,0.00,,,0.00,VWS V14.01,2013-07-05 22:04:00,
2013-07-05 15:09:00,66.0,17.1,29.75,SSW,194,6.3,6.3,15,0.00,,,0.00,VWS V14.01,2013-07-05 22:09:00,
2013-07-05 15:14:00,66.0,17.1,29.75,SW,235,7.6,7.6,15,0.00,,,0.00,VWS V14.01,2013-07-05 22:14:00,
2013-07-05 15:19:00,65.8,16.9,29.75,WSW,246,6.3,6.3,15,0.00,,,0.00,VWS V14.01,2013-07-05 22:19:00,
2013-07-05 15:24:00,66.0,17.1,29.75,WSW,238,8.3,13.6,15,0.00,,,0.00,VWS V14.01,2013-07-05 22:24:00,
2013-07-05 15:29:00,65.7,16.8,29.75,SSE,168,5.4,5.8,15,0.00,,,0.00,VWS V14.01,2013-07-05 22:29:00,
2013-07-05 15:34:00,65.8,16.9,29.75,West,262,3.1,8.7,15,0.00,,,0.00,VWS V14.01,2013-07-05 22:34:00,
2013-07-05 15:39:00,65.8,16.9,29.75,WSW,249,6.3,7.2,15,0.00,,,0.00,VWS V14.01,2013-07-05 22:39:00,
2013-07-05 15:44:00,65.8,16.9,29.75,SSW,202,5.8,5.8,15,0.00,,,0.00,VWS V14.01,2013-07-05 22:44:00,
2013-07-05 15:49:00,65.7,13.5,29.75,ESE,118,3.1,3.1,13,0.00,,,0.00,VWS V14.01,2013-07-05 22:49:00,
2013-07-05 15:50:00,65.7,13.5,29.75,South,184,2.2,3.1,13,0.00,,,0.00,VWS V14.01,2013-07-05 22:50:00,
2013-07-05 15:55:00,65.8,16.9,29.75,West,279,5.8,7.6,15,0.00,,,0.00,VWS V14.01,2013-07-05 22:55:00,
2013-07-05 16:00:00,66.2,12.1,29.75,SW,229,3.1,3.1,12,0.00,,,0.00,VWS V14.01,2013-07-05 23:00:00,
2013-07-05 16:05:00,66.0,17.1,29.75,WSW,237,3.6,5.8,15,0.00,,,0.00,VWS V14.01,2013-07-05 23:05:00,
2013-07-05 16:09:00,65.8,16.9,29.75,SSW,196,8.3,8.3,15,0.00,,,0.00,VWS V14.01,2013-07-05 23:09:00,
2013-07-05 16:14:00,65.8,13.6,29.75,SSW,203,3.1,8.1,13,0.00,,,0.00,VWS V14.01,2013-07-05 23:14:00,
2013-07-05 16:19:00,65.8,13.6,29.75,SE,142,5.4,5.4,13,0.00,,,0.00,VWS V14.01,2013-07-05 23:19:00,
2013-07-05 16:24:00,66.0,17.1,29.75,ESE,110,5.8,6.3,15,0.00,,,0.00,VWS V14.01,2013-07-05 23:24:00,
2013-07-05 16:29:00,66.6,12.4,29.75,West,274,3.6,5.8,12,0.00,,,0.00,VWS V14.01,2013-07-05 23:29:00,
2013-07-05 16:34:00,66.9,12.7,29.75,SSW,209,7.2,7.6,12,0.00,,,0.00,VWS V14.01,2013-07-05 23:34:00,
2013-07-05 16:39:00,66.4,12.3,29.75,SW,214,6.3,7.6,12,0.00,,,0.00,VWS V14.01,2013-07-05 23:39:00,
2013-07-05 16:44:00,66.4,12.3,29.75,SW,215,7.2,8.1,12,0.00,,,0.00,VWS V14.01,2013-07-05 23:44:00,
2013-07-05 16:49:00,66.7,12.5,29.75,SW,232,6.3,6.7,12,0.00,,,0.00,VWS V14.01,2013-07-05 23:49:00,
2013-07-05 16:54:00,66.6,12.4,29.75,SSW,207,3.6,7.6,12,0.00,,,0.00,VWS V14.01,2013-07-05 23:54:00,
2013-07-05 16:55:00,66.6,12.4,29.75,SW,216,6.3,8.1,12,0.00,,,0.00,VWS V14.01,2013-07-05 23:55:00,
2013-07-05 17:00:00,66.2,12.1,29.75,SSW,208,3.1,3.6,12,0.00,,,0.00,VWS V14.01,2013-07-06 00:00:00,
2013-07-05 17:05:00,66.4,12.3,29.75,WSW,246,5.8,5.8,12,0.00,,,0.00,VWS V14.01,2013-07-06 00:05:00,
2013-07-05 17:10:00,66.2,12.1,29.75,SW,216,5.8,5.8,12,0.00,,,0.00,VWS V14.01,2013-07-06 00:10:00,
2013-07-05 17:15:00,65.8,13.6,29.75,SSW,204,5.8,5.8,13,0.00,,,0.00,VWS V14.01,2013-07-06 00:15:00,
2013-07-05 17:20:00,65.8,16.9,29.75,SW,215,7.6,7.6,15,0.00,,,0.00,VWS V14.01,2013-07-06 00:20:00,
2013-07-05 17:25:00,65.7,16.8,29.75,SW,219,5.4,5.8,15,0.00,,,0.00,VWS V14.01,2013-07-06 00:25:00,
2013-07-05 17:30:00,65.5,16.6,29.75,SSW,212,8.1,8.1,15,0.00,,,0.00,VWS V14.01,2013-07-06 00:30:00,
2013-07-05 17:35:00,65.5,16.6,29.75,WSW,249,4.0,5.8,15,0.00,,,0.00,VWS V14.01,2013-07-06 00:35:00,
2013-07-05 17:40:00,65.3,16.5,29.75,SSW,211,4.0,5.4,15,0.00,,,0.00,VWS V14.01,2013-07-06 00:40:00,
2013-07-05 17:41:00,65.3,16.5,29.75,SSE,165,5.8,6.3,15,0.00,,,0.00,VWS V14.01,2013-07-06 00:41:00,
2013-07-05 17:46:00,65.1,16.4,29.75,SSW,204,4.0,4.0,15,0.00,,,0.00,VWS V14.01,2013-07-06 00:46:00,
2013-07-05 17:51:00,65.1,16.4,29.72,SW,214,3.1,3.6,15,0.00,,,0.00,VWS V14.01,2013-07-06 00:51:00,
2013-07-05 17:56:00,65.1,16.4,29.72,South,186,4.0,7.6,15,0.00,,,0.00,VWS V14.01,2013-07-06 00:56:00,
2013-07-05 18:01:00,64.8,16.1,29.72,SW,217,3.6,5.8,15,0.00,,,0.00,VWS V14.01,2013-07-06 01:01:00,
2013-07-05 18:06:00,64.6,20.1,29.72,SW,236,7.2,7.2,18,0.00,,,0.00,VWS V14.01,2013-07-06 01:06:00,
2013-07-05 18:11:00,64.0,17.0,29.72,SW,224,7.6,7.6,16,0.00,,,0.00,VWS V14.01,2013-07-06 01:11:00,
2013-07-05 18:16:00,63.0,22.5,29.72,SSW,205,5.8,8.7,21,0.00,,,0.00,VWS V14.01,2013-07-06 01:16:00,
2013-07-05 18:21:00,62.6,24.3,29.72,SW,231,5.8,8.3,23,0.00,,,0.00,VWS V14.01,2013-07-06 01:21:00,
2013-07-05 18:26:00,62.2,25.0,29.72,SSW,202,5.4,7.6,24,0.00,,,0.00,VWS V14.01,2013-07-06 01:26:00,
2013-07-05 18:31:00,62.4,25.2,29.72,SW,226,4.9,8.3,24,0.00,,,0.00,VWS V14.01,2013-07-06 01:31:00,
2013-07-05 18:36:00,61.7,24.6,29.72,WSW,252,5.8,8.1,24,0.00,,,0.00,VWS V14.01,2013-07-06 01:36:00,
2013-07-05 18:41:00,61.7,25.5,29.72,SSW,205,5.8,6.3,25,0.00,,,0.00,VWS V14.01,2013-07-06 01:41:00,
2013-07-05 18:46:00,61.9,25.7,29.72,SW,229,3.1,5.4,25,0.00,,,0.00,VWS V14.01,2013-07-06 01:46:00,
2013-07-05 18:51:00,62.1,25.9,29.72,SW,235,8.3,8.3,25,0.00,,,0.00,VWS V14.01,2013-07-06 01:51:00,
2013-07-05 18:57:00,61.9,24.7,29.72,SW,215,4.0,4.0,24,0.00,,,0.00,VWS V14.01,2013-07-06 01:57:00,
2013-07-05 19:02:00,61.3,25.2,29.72,WSW,242,5.8,8.7,25,0.00,,,0.00,VWS V14.01,2013-07-06 02:02:00,
2013-07-05 19:03:00,61.3,25.2,29.72,WSW,237,3.1,5.8,25,0.00,,,0.00,VWS V14.01,2013-07-06 02:03:00,
2013-07-05 19:08:00,61.2,25.1,29.72,SSE,149,3.6,6.3,25,0.00,,,0.00,VWS V14.01,2013-07-06 02:08:00,
2013-07-05 19:13:00,61.2,25.1,29.72,SW,232,3.1,5.4,25,0.00,,,0.00,VWS V14.01,2013-07-06 02:13:00,
2013-07-05 19:18:00,60.8,24.8,29.75,South,178,7.6,7.6,25,0.00,,,0.00,VWS V14.01,2013-07-06 02:18:00,
2013-07-05 19:23:00,60.4,25.4,29.75,South,186,4.0,5.4,26,0.00,,,0.00,VWS V14.01,2013-07-06 02:23:00,
2013-07-05 19:28:00,60.1,25.1,29.75,SSW,206,6.3,6.3,26,0.00,,,0.00,VWS V14.01,2013-07-06 02:28:00,
2013-07-05 19:33:00,59.7,25.7,29.75,South,176,8.1,8.1,27,0.00,,,0.00,VWS V14.01,2013-07-06 02:33:00,
2013-07-05 19:38:00,59.4,26.3,29.75,South,171,4.0,4.0,28,0.00,,,0.00,VWS V14.01,2013-07-06 02:38:00,
2013-07-05 19:43:00,59.0,26.8,29.75,SW,215,5.4,5.8,29,0.00,,,0.00,VWS V14.01,2013-07-06 02:43:00,
2013-07-05 19:48:00,58.6,28.1,29.75,SW,224,8.7,8.7,31,0.00,,,0.00,VWS V14.01,2013-07-06 02:48:00,
2013-07-05 19:53:00,58.1,28.4,29.75,West,260,5.4,7.6,32,0.00,,,0.00,VWS V14.01,2013-07-06 02:53:00,
2013-07-05 19:59:00,57.7,29.6,29.75,SSW,199,5.8,6.3,34,0.00,,,0.00,VWS V14.01,2013-07-06 02:59:00,
2013-07-05 20:04:00,57.6,30.1,29.75,South,191,6.3,6.3,35,0.00,,,0.00,VWS V14.01,2013-07-06 03:04:00,
2013-07-05 20:09:00,57.2,29.8,29.75,SW,228,3.6,11.0,35,0.00,,,0.00,VWS V14.01,2013-07-06 03:09:00,
2013-07-05 20:14:00,56.8,30.2,29.75,SSW,209,5.8,8.7,36,0.00,,,0.00,VWS V14.01,2013-07-06 03:14:00,
2013-07-05 20:19:00,56.7,30.7,29.75,WSW,240,6.3,8.3,37,0.00,,,0.00,VWS V14.01,2013-07-06 03:19:00,
2013-07-05 20:24:00,56.5,30.5,29.75,SSW,210,8.1,8.1,37,0.00,,,0.00,VWS V14.01,2013-07-06 03:24:00,
2013-07-05 20:29:00,56.3,31.0,29.75,SW,216,5.8,6.3,38,0.00,,,0.00,VWS V14.01,2013-07-06 03:29:00,
2013-07-05 20:34:00,56.3,31.7,29.75,SW,223,4.0,6.3,39,0.00,,,0.00,VWS V14.01,2013-07-06 03:34:00,
2013-07-05 20:39:00,56.3,31.7,29.75,SSW,207,2.7,4.0,39,0.00,,,0.00,VWS V14.01,2013-07-06 03:39:00,
2013-07-05 20:44:00,56.1,31.5,29.75,South,190,5.4,6.3,39,0.00,,,0.00,VWS V14.01,2013-07-06 03:44:00,
2013-07-05 20:49:00,55.9,31.4,29.75,SW,215,5.4,6.3,39,0.00,,,0.00,VWS V14.01,2013-07-06 03:49:00,
2013-07-05 20:54:00,55.8,31.2,29.75,SW,216,5.8,7.6,39,0.00,,,0.00,VWS V14.01,2013-07-06 03:54:00,
2013-07-05 20:59:00,55.6,31.7,29.75,South,170,4.9,4.9,40,0.00,,,0.00,VWS V14.01,2013-07-06 03:59:00,
2013-07-05 21:01:00,55.6,31.7,29.75,SSW,198,7.6,7.6,40,0.00,,,0.00,VWS V14.01,2013-07-06 04:01:00,
2013-07-05 21:06:00,55.6,32.3,29.75,SSE,154,4.0,6.7,41,0.00,,,0.00,VWS V14.01,2013-07-06 04:06:00,
2013-07-05 21:11:00,55.6,32.3,29.75,SW,214,6.3,7.6,41,0.00,,,0.00,VWS V14.01,2013-07-06 04:11:00,
2013-07-05 21:16:00,55.4,32.7,29.75,WSW,238,3.6,5.4,42,0.00,,,0.00,VWS V14.01,2013-07-06 04:16:00,
2013-07-05 21:21:00,55.4,32.7,29.75,South,180,6.7,6.7,42,0.00,,,0.00,VWS V14.01,2013-07-06 04:21:00,
2013-07-05 21:26:00,55.2,33.1,29.75,SSW,202,5.4,5.4,43,0.00,,,0.00,VWS V14.01,2013-07-06 04:26:00,
2013-07-05 21:31:00,55.2,33.7,29.75,SSE,156,4.0,4.0,44,0.00,,,0.00,VWS V14.01,2013-07-06 04:31:00,
2013-07-05 21:36:00,55.4,34.4,29.78,SSW,209,3.6,6.3,45,0.00,,,0.00,VWS V14.01,2013-07-06 04:36:00,
2013-07-05 21:41:00,55.2,34.3,29.78,SSE,162,3.1,6.3,45,0.00,,,0.00,VWS V14.01,2013-07-06 04:41:00,
2013-07-05 21:46:00,55.2,34.3,29.78,South,182,6.7,8.3,45,0.00,,,0.00,VWS V14.01,2013-07-06 04:46:00,
2013-07-05 21:51:00,55.2,34.3,29.78,SSW,204,5.4,6.7,45,0.00,,,0.00,VWS V14.01,2013-07-06 04:51:00,
2013-07-05 21:56:00,55.2,34.8,29.78,SSW,211,5.4,5.4,46,0.00,,,0.00,VWS V14.01,2013-07-06 04:56:00,
2013-07-05 22:01:00,55.2,34.8,29.78,WNW,284,5.4,5.8,46,0.00,,,0.00,VWS V14.01,2013-07-06 05:01:00,
2013-07-05 22:06:00,55.2,34.8,29.78,SW,216,3.1,6.3,46,0.00,,,0.00,VWS V14.01,2013-07-06 05:06:00,
2013-07-05 22:11:00,55.2,34.8,29.78,SSW,208,3.6,4.0,46,0.00,,,0.00,VWS V14.01,2013-07-06 05:11:00,
2013-07-05 22:16:00,55.0,34.7,29.78,SSW,213,5.4,5.4,46,0.00,,,0.00,VWS V14.01,2013-07-06 05:16:00,
2013-07-05 22:21:00,55.0,34.7,29.78,SE,139,8.7,8.7,46,0.00,,,0.00,VWS V14.01,2013-07-06 05:21:00,
2013-07-05 22:26:00,55.0,34.7,29.78,ENE,72,6.3,6.3,46,0.00,,,0.00,VWS V14.01,2013-07-06 05:26:00,
2013-07-05 22:31:00,55.0,34.7,29.78,South,181,5.8,6.3,46,0.00,,,0.00,VWS V14.01,2013-07-06 05:31:00,
2013-07-05 22:36:00,55.0,35.2,29.78,SSW,207,8.7,8.7,47,0.00,,,0.00,VWS V14.01,2013-07-06 05:36:00,
2013-07-05 22:41:00,55.0,35.2,29.78,South,175,7.6,7.6,47,0.00,,,0.00,VWS V14.01,2013-07-06 05:41:00,
2013-07-05 22:46:00,55.0,35.2,29.78,SW,216,5.4,6.3,47,0.00,,,0.00,VWS V14.01,2013-07-06 05:46:00,
2013-07-05 22:51:00,55.0,35.2,29.78,SW,221,4.9,7.6,47,0.00,,,0.00,VWS V14.01,2013-07-06 05:51:00,
2013-07-05 22:56:00,55.0,35.2,29.78,SSE,166,5.4,5.8,47,0.00,,,0.00,VWS V14.01,2013-07-06 05:56:00,
2013-07-05 23:01:00,54.9,35.0,29.78,South,174,5.4,8.7,47,0.00,,,0.00,VWS V14.01,2013-07-06 06:01:00,
2013-07-05 23:06:00,54.9,35.0,29.75,SW,214,5.8,5.8,47,0.00,,,0.00,VWS V14.01,2013-07-06 06:06:00,
2013-07-05 23:11:00,54.9,35.0,29.75,WNW,284,4.0,8.1,47,0.00,,,0.00,VWS V14.01,2013-07-06 06:11:00,
2013-07-05 23:16:00,54.9,35.0,29.75,SW,218,4.5,6.3,47,0.00,,,0.00,VWS V14.01,2013-07-06 06:16:00,
2013-07-05 23:21:00,54.9,35.0,29.75,South,186,2.7,3.6,47,0.00,,,0.00,VWS V14.01,2013-07-06 06:21:00,
2013-07-05 23:26:00,54.9,35.0,29.75,SW,230,4.9,5.8,47,0.00,,,0.00,VWS V14.01,2013-07-06 06:26:00,
2013-07-05 23:31:00,54.9,35.0,29.75,South,176,3.1,6.3,47,0.00,,,0.00,VWS V14.01,2013-07-06 06:31:00,
2013-07-05 23:37:00,54.9,35.0,29.75,SW,219,3.1,4.9,47,0.00,,,0.00,VWS V14.01,2013-07-06 06:37:00,
2013-07-05 23:42:00,54.9,35.6,29.75,South,179,4.0,5.8,48,0.00,,,0.00,VWS V14.01,2013-07-06 06:42:00,
2013-07-05 23:46:00,54.9,35.6,29.75,East,84,2.7,6.3,48,0.00,,,0.00,VWS V14.01,2013-07-06 06:46:00,
2013-07-05 23:52:00,54.7,35.4,29.75,SSE,156,6.3,6.3,48,0.00,,,0.00,VWS V14.01,2013-07-06 06:52:00,
2013-07-05 23:57:00,54.7,35.4,29.75,South,191,4.0,4.9,48,0.00,,,0.00,VWS V14.01,2013-07-06 06:57:00,